SCP
-0 -0 -0 -0 -0 -0 0 0 0 -0 -0 -0 0 0 0 0 0 0 0 0 0 0 0 0 0 0 0 0 0 0 1 1 0 0 0 0 0 1 1 0 0 0 0
-0 -0 -0 -0 -0 -0 -0 0 0 0 -0 -0 -0 0 0 0 0 0 0 0 0 0 0 0 0 0 0 0 0 0 0 1 0 0 0 0 0 0 2 1 1 0 0
-0 -0 0 -0 -0 -0 -0 -0 0 0 0 -0 -0 0 0 0 0 0 0 0 0 0 0 0 0 0 0 0 0 0 0 0 0 0 0 1 -0 0 0 1 0 0 0
-0 -0 0 -0 -0 -0 -0 -0 0 0 0 0 0 0 0 0 0 0 0 0 0 0 0 0 0 0 0 0 0 0 0 0 0 0 0 1 0 -0 0 1 1 1 0
-0 -0 -0 -0 -0 -0 -0 0 0 0 0 0 0 0 0 0 0 0 0 -0 0 0 0 0 0 0 0 0 0 0 0 0 0 0 0 0 1 0 0 1 1 1 1
-0 0 -0 -0 -0 0 0 0 0 0 0 0 0 0 0 0 0 0 0 0 0 0 0 0 0 0 0 0 0 0 0 0 0 0 0 0 1 1 1 1 2 2 1
-0 -0 -0 -0 -0 -0 -0 0 0 0 0 0 0 0 0 0 0 0 0 0 0 0 0 0 0 0 0 0 0 0 0 0 0 0 0 0 0 1 1 1 1 2 1
0 -0 -0 -0 -0 -0 -0 -0 0 0 0 0 0 0 0 0 0 0 0 0 0 0 0 0 0 0 0 0 0 0 0 0 0 0 0 1 0 1 1 1 2 2 2
0 -0 -0 -0 -0 -0 -0 -0 -0 0 0 0 0 0 0 0 0 0 0 0 0 0 0 0 0 0 0 0 0 0 0 0 0 0 0 0 0 0 0 1 1 2 1
0 -0 -0 -0 -0 -0 -0 -0 -0 -0 0 0 0 0 0 0 0 0 0 0 0 0 0 0 0 0 0 0 0 0 0 0 0 0 0 0 0 0 0 0 0 1 1
0 -0 -0 -0 -0 -0 -0 -0 -0 -0 0 0 0 0 -0 0 0 0 0 0 0 0 0 0 0 0 0 0 0 0 0 0 0 0 0 0 0 0 0 0 0 0 0
0 0 0 -0 -0 -0 -0 -0 -0 -0 -0 -0 0 0 0 -0 0 0 0 0 0 0 0 0 0 0 0 0 0 0 0 0 0 0 0 0 0 0 0 0 0 0 0
0 0 0 -0 -0 -0 -0 -0 -0 -0 -0 -0 0 0 0 0 0 0 0 0 0 0 0 0 0 0 0 0 0 0 0 0 0 0 0 0 0 0 0 0 0 0 0
0 0 0 0 -0 -0 -0 -0 -0 -0 -0 -0 -0 -0 -0 0 0 0 0 0 0 0 0 0 0 0 0 0 0 0 0 0 0 0 0 0 0 0 0 0 0 0 0
0 0 0 0 -0 -0 -0 -0 -0 -0 -0 -0 -0 -0 -0 -0 -0 0 0 0 0 0 0 0 0 0 0 0 0 0 0 0 0 0 0 0 0 0 0 0 0 0 0
0 0 0 0 -0 -0 -0 -0 -0 -0 -0 -0 0 0 -0 -0 0 -0 -0 0 0 0 0 0 0 0 0 0 0 0 0 0 0 0 0 0 0 0 0 0 0 0 0
0 0 0 0 0 -0 -0 -0 -0 -0 -0 -0 -0 0 0 0 0 -0 0 0 0 0 0 0 0 0 0 0 0 0 0 0 0 0 0 0 0 0 0 0 0 0 0
0 0 0 0 0 -0 -0 -0 -0 -0 -0 -0 -0 -0 -0 -0 0 -0 -0 0 0 0 0 0 0 0 0 0 0 0 0 0 0 0 0 0 0 0 0 0 0 0 0
0 0 0 0 0 0 0 -0 -0 -0 -0 -0 -0 -0 0 0 -0 0 0 -0 0 0 0 0 0 0 0 0 0 0 0 0 0 0 0 0 0 0 0 0 0 0 0
0 0 0 0 0 0 0 0 -0 -0 -0 -0 -0 -0 -0 -0 -0 -0 -0 -0 -0 0 0 0 0 0 0 0 0 0 0 0 0 0 0 0 0 0 0 0 0 0 0
0 0 0 0 0 0 0 0 0 -0 -0 -0 -0 -0 0 -0 -0 -0 -0 -0 -0 -0 0 0 0 0 0 0 0 0 0 0 0 0 0 0 0 0 0 0 0 0 0
0 0 0 0 0 0 0 0 0 -0 -0 -0 -0 -0 0 -0 -0 -0 -0 -0 -0 -0 -0 -0 0 0 0 0 0 0 0 0 0 0 0 0 0 0 0 0 0 0 0
0 0 0 0 0 0 0 0 0 0 -0 -0 -0 0 -0 -0 -0 -0 -0 -0 -0 -0 -0 -0 -0 -0 0 0 0 0 0 0 0 0 0 0 0 0 0 0 0 0 0
0 0 0 0 0 0 0 0 0 0 0 0 -0 -0 -0 0 0 0 -0 -0 -0 -0 -0 -0 -0 -0 -0 0 0 0 0 0 0 0 0 0 0 0 0 0 0 0 0
0 0 0 0 0 0 0 0 0 0 0 0 0 -0 -0 -0 -0 0 0 0 -0 -0 -0 -0 -0 0 0 0 0 0 0 0 0 0 0 0 0 0 0 0 0 0 0
0 0 0 0 0 0 0 0 0 0 0 0 0 0 0 -0 -0 -0 0 0 0 0 0 -0 0 -0 0 0 0 0 0 0 0 0 0 0 0 0 0 0 0 0 0
Wind_Speed_500mb
53 51 50 45 51 50 53 57 56 54 53 58 57 55 54 48 40 37 53 60 62 68 82 91 98 86 98 92 96 94 88 85 77 69 54 57 55 73 74 89 91 90 89
52 49 49 51 52 50 51 54 55 53 54 50 53 57 53 52 42 35 31 56 68 69 84 90 94 99 97 103 87 108 97 87 86 80 67 52 62 72 86 88 92 90 92
51 49 49 52 52 52 53 53 52 55 53 51 52 52 56 52 54 38 31 38 57 75 82 94 96 106 112 107 103 110 106 88 88 86 78 70 54 55 58 77 83 89 91
50 50 49 53 52 53 55 54 51 52 54 51 51 54 53 58 55 52 39 37 44 62 81 89 94 105 102 106 103 102 90 102 98 92 86 77 74 57 65 63 67 82 85
50 49 48 52 50 51 56 55 51 48 50 50 51 54 56 56 59 55 49 34 28 44 73 76 84 86 105 111 107 112 103 97 95 96 89 89 78 68 71 75 67 70 80
47 49 44 47 51 53 54 53 51 46 48 48 51 55 58 56 55 53 52 43 26 14 40 55 76 81 98 110 102 102 109 106 108 102 98 90 93 84 77 75 87 61 54
45 48 44 46 49 51 52 51 50 46 47 47 49 51 55 56 56 48 49 46 37 28 12 27 37 59 93 106 100 99 108 112 116 112 104 105 97 93 86 87 80 88 79
44 47 46 49 49 49 49 47 48 50 50 49 46 47 47 50 53 48 41 46 42 31 29 12 8 10 42 76 82 96 108 116 121 115 114 107 105 97 96 93 95 97 83
43 45 46 48 49 47 49 51 51 48 46 49 45 49 53 53 56 53 46 41 44 42 36 27 25 17 1 36 53 59 54 105 126 133 121 105 101 99 97 87 85 79 78
44 44 44 43 45 51 49 51 50 45 43 47 48 43 46 51 56 50 47 45 41 40 36 39 35 24 21 6 15 46 57 60 52 97 128 123 115 111 103 99 89 86 83
41 41 41 42 48 50 43 43 48 49 44 46 48 47 46 51 56 51 47 42 39 39 41 33 35 39 28 20 12 6 21 36 53 53 55 99 113 112 108 106 105 99 87
41 40 38 42 47 42 41 40 42 47 49 47 47 51 50 53 56 55 48 45 40 40 37 36 36 32 33 27 19 19 13 2 15 33 47 49 64 99 105 113 114 105 97
40 39 39 41 44 42 41 44 40 42 46 47 52 55 54 53 54 55 51 48 37 31 31 29 25 27 28 29 31 25 18 11 6 13 17 33 48 56 77 88 99 109 107
40 38 40 42 40 40 40 39 42 41 45 47 45 46 49 51 56 57 52 45 41 36 35 31 29 28 34 34 31 31 29 26 19 17 13 3 11 27 35 49 74 70 93
40 38 40 40 41 38 37 38 38 36 38 44 47 47 50 53 51 44 42 48 42 37 38 40 47 49 43 43 37 34 31 28 28 23 18 12 9 6 9 15 25 39 57
35 37 40 41 40 39 39 38 37 37 37 36 41 48 47 44 48 44 36 43 41 43 46 51 52 49 46 44 44 43 38 35 33 31 23 23 22 14 2 5 7 12 18
34 37 44 41 40 40 42 43 42 40 37 37 42 44 44 48 50 48 39 42 48 53 59 56 52 47 45 44 43 43 40 38 35 29 26 23 22 27 15 4 1 7 10
31 41 42 39 39 39 40 41 43 45 46 51 49 47 39 43 50 52 52 49 53 55 52 52 50 49 47 47 45 44 43 40 37 33 31 28 27 25 26 20 13 11 9
39 41 40 36 37 37 38 40 40 41 41 44 47 53 51 47 46 50 54 52 48 50 51 47 46 46 50 49 47 46 43 39 37 33 29 26 24 24 22 20 20 19 15
34 35 38 33 35 35 36 37 39 40 39 41 44 50 54 52 53 52 51 50 48 46 47 46 46 45 46 47 46 45 44 44 41 38 34 31 24 20 19 19 19 18 14
29 31 34 28 32 32 33 33 36 36 36 37 39 44 48 46 44 44 47 49 47 44 43 41 42 44 45 45 45 45 43 44 45 46 40 32 29 27 23 19 19 20 20
26 24 25 27 27 29 32 30 31 33 34 36 38 40 43 43 44 44 45 44 41 40 40 40 39 41 42 43 45 43 43 44 44 45 45 42 37 28 27 24 22 22 22
21 24 23 23 23 25 28 29 30 30 32 33 37 39 40 42 42 43 43 42 41 39 39 39 41 42 41 39 37 39 42 43 43 42 43 41 40 36 32 25 23 24 22
21 24 26 25 24 24 23 26 28 29 31 32 33 35 38 40 40 41 41 43 43 40 39 38 38 39 40 40 40 39 38 39 36 36 38 38 39 39 37 35 28 25 25
23 28 29 27 27 25 24 24 24 26 29 32 34 33 35 37 40 42 41 42 42 41 40 39 38 38 37 37 39 39 39 39 39 34 34 34 36 37 38 36 34 34 29
24 27 29 28 26 27 28 27 25 24 29 30 33 35 37 38 40 41 42 43 42 41 40 39 38 38 37 36 37 39 41 41 39 36 33 31 33 36 37 38 37 34 34
Wind_Direction_500mb
345 346 345 342 333 347 344 346 344 347 346 352 359 359 358 345 307 274 251 237 223 227 223 225 232 233 243 240 236 226 227 223 229 229 228 229 220 221 219 231 229 232 231
343 344 341 338 346 347 345 346 346 349 350 353 357 2 5 357 344 302 268 238 227 223 231 229 227 226 229 236 246 224 225 223 225 228 225 224 229 233 232 231 235 233 234
343 345 338 346 351 350 348 347 347 349 351 357 357 1 7 6 357 341 306 262 238 221 219 232 231 225 229 226 229 230 219 221 224 226 226 226 229 223 224 224 233 234 233
345 345 342 349 352 349 351 351 349 349 353 354 358 359 2 11 7 359 339 285 261 233 228 223 230 233 222 219 221 225 228 229 223 225 225 225 224 223 228 223 220 231 233
345 342 349 348 351 348 350 354 351 351 357 355 358 360 357 4 12 4 360 346 280 257 235 226 235 236 228 227 227 224 230 224 217 220 223 222 222 216 213 221 224 230 234
346 342 349 350 352 349 348 353 352 353 359 357 0 360 357 357 6 8 4 0 8 292 224 206 215 215 229 230 227 232 239 230 215 219 217 220 219 219 219 217 226 215 216
348 344 348 349 349 347 348 349 351 353 357 0 360 358 358 1 3 10 5 9 6 16 343 207 209 210 215 226 228 231 231 227 226 220 219 219 220 221 220 219 222 223 229
348 350 352 350 349 348 345 349 353 356 359 358 358 0 3 3 7 11 14 13 13 5 13 23 24 228 209 214 225 237 236 231 225 222 223 221 224 221 228 227 225 232 228
355 352 351 350 349 349 348 354 356 1 358 359 3 4 7 8 12 17 19 18 14 10 3 14 13 20 1 210 210 215 217 226 229 226 218 220 222 228 223 227 223 219 223
355 353 350 348 348 346 353 352 354 355 2 1 7 6 9 14 18 21 20 25 20 15 6 11 8 11 37 63 188 204 212 221 221 223 221 219 222 226 227 223 223 222 225
351 349 347 344 342 347 349 354 357 358 357 4 5 11 4 13 18 22 26 27 24 29 26 17 16 16 16 38 57 130 199 217 224 220 222 220 217 220 221 223 228 228 226
351 352 349 345 354 355 354 357 0 1 1 3 5 9 11 8 9 19 25 26 26 35 32 27 21 18 21 23 46 47 37 308 210 215 216 223 225 224 222 224 226 228 229
350 351 353 356 1 360 1 1 360 1 4 2 3 5 6 6 7 14 19 24 26 36 46 41 37 30 32 39 35 34 34 42 95 146 172 205 217 227 228 229 230 230 231
348 353 357 355 1 358 3 2 2 0 0 3 2 3 6 3 3 8 15 21 30 31 41 33 42 46 43 43 46 44 29 28 39 69 82 83 211 213 225 233 232 232 229
354 354 353 354 1 360 4 4 5 5 7 2 3 5 5 5 5 9 13 20 28 33 38 38 40 38 33 33 36 33 26 23 20 35 46 26 335 222 214 221 236 236 237
355 353 349 356 358 0 0 2 6 8 11 13 14 12 14 15 11 15 24 34 38 39 45 40 39 35 32 27 30 31 24 16 19 17 17 10 1 356 323 206 215 235 239
353 345 352 356 357 358 0 0 1 13 14 21 22 18 18 16 20 24 28 35 33 38 38 34 35 33 29 30 27 26 20 17 18 13 15 12 356 347 342 343 276 222 236
349 348 351 353 355 355 359 360 3 5 5 13 22 22 20 26 22 22 26 32 30 36 35 31 26 28 28 27 24 24 22 19 15 8 10 6 4 350 342 350 322 300 284
347 350 352 352 352 355 354 358 3 4 4 5 10 18 20 27 26 27 28 28 22 21 23 23 22 24 28 29 25 24 21 16 15 11 3 359 358 356 350 347 344 334 314
346 349 353 351 351 355 356 356 358 1 2 5 7 9 14 19 18 21 24 23 23 21 20 19 15 18 23 24 23 25 19 16 12 8 3 359 346 343 336 346 341 328 325
343 346 353 349 349 353 352 354 355 357 359 2 3 11 14 16 15 15 16 19 20 19 17 16 12 12 14 15 13 16 17 14 13 6 1 350 348 349 328 330 326 321 324
341 350 343 342 343 346 350 352 353 354 354 358 360 5 13 15 14 14 17 18 19 19 17 16 15 14 11 9 4 4 6 4 5 1 360 359 352 349 335 330 311 302 307
338 345 345 343 340 344 342 347 349 351 353 354 357 359 4 8 9 9 11 13 14 13 15 14 15 13 12 9 3 2 357 352 352 352 350 356 358 354 341 330 320 302 294
347 348 346 344 341 345 339 344 344 345 350 351 353 354 355 357 359 1 2 6 9 11 10 8 8 7 6 6 5 3 358 352 343 341 345 349 352 354 349 344 332 314 300
343 346 347 348 345 345 345 344 344 344 348 351 353 353 353 356 356 356 359 359 359 0 4 5 4 1 0 1 2 3 1 355 352 345 343 348 350 350 347 345 337 330 315
339 342 344 347 349 349 350 349 348 348 350 352 355 355 355 355 356 356 356 356 357 357 355 354 355 354 355 355 356 357 359 357 356 354 351 347 351 350 347 343 342 336 331
Wind_Speed_850mb
53 51 50 45 51 50 53 57 56 54 53 58 57 55 54 48 40 37 53 60 62 68 82 91 98 86 98 92 96 94 88 85 77 69 54 57 55 73 74 89 91 90 89
52 49 49 51 52 50 51 54 55 53 54 50 53 57 53 52 42 35 31 56 68 69 84 90 94 99 97 103 87 108 97 87 86 80 67 52 62 72 86 88 92 90 92
51 49 49 52 52 52 53 53 52 55 53 51 52 52 56 52 54 38 31 38 57 75 82 94 96 106 112 107 103 110 106 88 88 86 78 70 54 55 58 77 83 89 91
50 50 49 53 52 53 55 54 51 52 54 51 51 54 53 58 55 52 39 37 44 62 81 89 94 105 102 106 103 102 90 102 98 92 86 77 74 57 65 63 67 82 85
50 49 48 52 50 51 56 55 51 48 50 50 51 54 56 56 59 55 49 34 28 44 73 76 84 86 105 111 107 112 103 97 95 96 89 89 78 68 71 75 67 70 80
47 49 44 47 51 53 54 53 51 46 48 48 51 55 58 56 55 53 52 43 26 14 40 55 76 81 98 110 102 102 109 106 108 102 98 90 93 84 77 75 87 61 54
45 48 44 46 49 51 52 51 50 46 47 47 49 51 55 56 56 48 49 46 37 28 12 27 37 59 93 106 100 99 108 112 116 112 104 105 97 93 86 87 80 88 79
44 47 46 49 49 49 49 47 48 50 50 49 46 47 47 50 53 48 41 46 42 31 29 12 8 10 42 76 82 96 108 116 121 115 114 107 105 97 96 93 95 97 83
43 45 46 48 49 47 49 51 51 48 46 49 45 49 53 53 56 53 46 41 44 42 36 27 25 17 1 36 53 59 54 105 126 133 121 105 101 99 97 87 85 79 78
44 44 44 43 45 51 49 51 50 45 43 47 48 43 46 51 56 50 47 45 41 40 36 39 35 24 21 6 15 46 57 60 52 97 128 123 115 111 103 99 89 86 83
41 41 41 42 48 50 43 43 48 49 44 46 48 47 46 51 56 51 47 42 39 39 41 33 35 39 28 20 12 6 21 36 53 53 55 99 113 112 108 106 105 99 87
41 40 38 42 47 42 41 40 42 47 49 47 47 51 50 53 56 55 48 45 40 40 37 36 36 32 33 27 19 19 13 2 15 33 47 49 64 99 105 113 114 105 97
40 39 39 41 44 42 41 44 40 42 46 47 52 55 54 53 54 55 51 48 37 31 31 29 25 27 28 29 31 25 18 11 6 13 17 33 48 56 77 88 99 109 107
40 38 40 42 40 40 40 39 42 41 45 47 45 46 49 51 56 57 52 45 41 36 35 31 29 28 34 34 31 31 29 26 19 17 13 3 11 27 35 49 74 70 93
40 38 40 40 41 38 37 38 38 36 38 44 47 47 50 53 51 44 42 48 42 37 38 40 47 49 43 43 37 34 31 28 28 23 18 12 9 6 9 15 25 39 57
35 37 40 41 40 39 39 38 37 37 37 36 41 48 47 44 48 44 36 43 41 43 46 51 52 49 46 44 44 43 38 35 33 31 23 23 22 14 2 5 7 12 18
34 37 44 41 40 40 42 43 42 40 37 37 42 44 44 48 50 48 39 42 48 53 59 56 52 47 45 44 43 43 40 38 35 29 26 23 22 27 15 4 1 7 10
31 41 42 39 39 39 40 41 43 45 46 51 49 47 39 43 50 52 52 49 53 55 52 52 50 49 47 47 45 44 43 40 37 33 31 28 27 25 26 20 13 11 9
39 41 40 36 37 37 38 40 40 41 41 44 47 53 51 47 46 50 54 52 48 50 51 47 46 46 50 49 47 46 43 39 37 33 29 26 24 24 22 20 20 19 15
34 35 38 33 35 35 36 37 39 40 39 41 44 50 54 52 53 52 51 50 48 46 47 46 46 45 46 47 46 45 44 44 41 38 34 31 24 20 19 19 19 18 14
29 31 34 28 32 32 33 33 36 36 36 37 39 44 48 46 44 44 47 49 47 44 43 41 42 44 45 45 45 45 43 44 45 46 40 32 29 27 23 19 19 20 20
26 24 25 27 27 29 32 30 31 33 34 36 38 40 43 43 44 44 45 44 41 40 40 40 39 41 42 43 45 43 43 44 44 45 45 42 37 28 27 24 22 22 22
21 24 23 23 23 25 28 29 30 30 32 33 37 39 40 42 42 43 43 42 41 39 39 39 41 42 41 39 37 39 42 43 43 42 43 41 40 36 32 25 23 24 22
21 24 26 25 24 24 23 26 28 29 31 32 33 35 38 40 40 41 41 43 43 40 39 38 38 39 40 40 40 39 38 39 36 36 38 38 39 39 37 35 28 25 25
23 28 29 27 27 25 24 24 24 26 29 32 34 33 35 37 40 42 41 42 42 41 40 39 38 38 37 37 39 39 39 39 39 34 34 34 36 37 38 36 34 34 29
24 27 29 28 26 27 28 27 25 24 29 30 33 35 37 38 40 41 42 43 42 41 40 39 38 38 37 36 37 39 41 41 39 36 33 31 33 36 37 38 37 34 34
Wind_Direction_850mb
345 346 345 342 333 347 344 346 344 347 346 352 359 359 358 345 307 274 251 237 223 227 223 225 232 233 243 240 236 226 227 223 229 229 228 229 220 221 219 231 229 232 231
343 344 341 338 346 347 345 346 346 349 350 353 357 2 5 357 344 302 268 238 227 223 231 229 227 226 229 236 246 224 225 223 225 228 225 224 229 233 232 231 235 233 234
343 345 338 346 351 350 348 347 347 349 351 357 357 1 7 6 357 341 306 262 238 221 219 232 231 225 229 226 229 230 219 221 224 226 226 226 229 223 224 224 233 234 233
345 345 342 349 352 349 351 351 349 349 353 354 358 359 2 11 7 359 339 285 261 233 228 223 230 233 222 219 221 225 228 229 223 225 225 225 224 223 228 223 220 231 233
345 342 349 348 351 348 350 354 351 351 357 355 358 360 357 4 12 4 360 346 280 257 235 226 235 236 228 227 227 224 230 224 217 220 223 222 222 216 213 221 224 230 234
346 342 349 350 352 349 348 353 352 353 359 357 0 360 357 357 6 8 4 0 8 292 224 206 215 215 229 230 227 232 239 230 215 219 217 220 219 219 219 217 226 215 216
348 344 348 349 349 347 348 349 351 353 357 0 360 358 358 1 3 10 5 9 6 16 343 207 209 210 215 226 228 231 231 227 226 220 219 219 220 221 220 219 222 223 229
348 350 352 350 349 348 345 349 353 356 359 358 358 0 3 3 7 11 14 13 13 5 13 23 24 228 209 214 225 237 236 231 225 222 223 221 224 221 228 227 225 232 228
355 352 351 350 349 349 348 354 356 1 358 359 3 4 7 8 12 17 19 18 14 10 3 14 13 20 1 210 210 215 217 226 229 226 218 220 222 228 223 227 223 219 223
355 353 350 348 348 346 353 352 354 355 2 1 7 6 9 14 18 21 20 25 20 15 6 11 8 11 37 63 188 204 212 221 221 223 221 219 222 226 227 223 223 222 225
351 349 347 344 342 347 349 354 357 358 357 4 5 11 4 13 18 22 26 27 24 29 26 17 16 16 16 38 57 130 199 217 224 220 222 220 217 220 221 223 228 228 226
351 352 349 345 354 355 354 357 0 1 1 3 5 9 11 8 9 19 25 26 26 35 32 27 21 18 21 23 46 47 37 308 210 215 216 223 225 224 222 224 226 228 229
350 351 353 356 1 360 1 1 360 1 4 2 3 5 6 6 7 14 19 24 26 36 46 41 37 30 32 39 35 34 34 42 95 146 172 205 217 227 228 229 230 230 231
348 353 357 355 1 358 3 2 2 0 0 3 2 3 6 3 3 8 15 21 30 31 41 33 42 46 43 43 46 44 29 28 39 69 82 83 211 213 225 233 232 232 229
354 354 353 354 1 360 4 4 5 5 7 2 3 5 5 5 5 9 13 20 28 33 38 38 40 38 33 33 36 33 26 23 20 35 46 26 335 222 214 221 236 236 237
355 353 349 356 358 0 0 2 6 8 11 13 14 12 14 15 11 15 24 34 38 39 45 40 39 35 32 27 30 31 24 16 19 17 17 10 1 356 323 206 215 235 239
353 345 352 356 357 358 0 0 1 13 14 21 22 18 18 16 20 24 28 35 33 38 38 34 35 33 29 30 27 26 20 17 18 13 15 12 356 347 342 343 276 222 236
349 348 351 353 355 355 359 360 3 5 5 13 22 22 20 26 22 22 26 32 30 36 35 31 26 28 28 27 24 24 22 19 15 8 10 6 4 350 342 350 322 300 284
347 350 352 352 352 355 354 358 3 4 4 5 10 18 20 27 26 27 28 28 22 21 23 23 22 24 28 29 25 24 21 16 15 11 3 359 358 356 350 347 344 334 314
346 349 353 351 351 355 356 356 358 1 2 5 7 9 14 19 18 21 24 23 23 21 20 19 15 18 23 24 23 25 19 16 12 8 3 359 346 343 336 346 341 328 325
343 346 353 349 349 353 352 354 355 357 359 2 3 11 14 16 15 15 16 19 20 19 17 16 12 12 14 15 13 16 17 14 13 6 1 350 348 349 328 330 326 321 324
341 350 343 342 343 346 350 352 353 354 354 358 360 5 13 15 14 14 17 18 19 19 17 16 15 14 11 9 4 4 6 4 5 1 360 359 352 349 335 330 311 302 307
338 345 345 343 340 344 342 347 349 351 353 354 357 359 4 8 9 9 11 13 14 13 15 14 15 13 12 9 3 2 357 352 352 352 350 356 358 354 341 330 320 302 294
347 348 346 344 341 345 339 344 344 345 350 351 353 354 355 357 359 1 2 6 9 11 10 8 8 7 6 6 5 3 358 352 343 341 345 349 352 354 349 344 332 314 300
343 346 347 348 345 345 345 344 344 344 348 351 353 353 353 356 356 356 359 359 359 0 4 5 4 1 0 1 2 3 1 355 352 345 343 348 350 350 347 345 337 330 315
339 342 344 347 349 349 350 349 348 348 350 352 355 355 355 355 356 356 356 356 357 357 355 354 355 354 355 355 356 357 359 357 356 354 351 347 351 350 347 343 342 336 331